Regional Weather Roundup
Issued by NWS Charleston, SC

Home | Current Version | Previous Version | Text Only | Print | Product List | Glossary On
Versions: 1 2 3 4 5 6 7 8 9 10 11 12 13 14 15 16 17 18 19 20 21 22 23 24 25 26 27 28 29 30 31 32 33 34 35 36 37 38 39 40 41 42 43 44 45 46 47 48 49 50
000
ASUS42 KCHS 231127
RWRCHS

REGIONAL WEATHER ROUNDUP
NATIONAL WEATHER SERVICE CHARLESTON SC
700 AM EDT MON OCT 23 2017

NOTE: "FAIR" INDICATES FEW OR NO CLOUDS BELOW 12,000 FEET WITH NO
SIGNIFICANT WEATHER AND/OR OBSTRUCTIONS TO VISIBILITY.

NOT ALL STATIONS ARE QUALITY CONTROLLED. USE DATA WITH CAUTION...
ESPECIALLY DEWPOINT OBSERVATIONS.

SCZ027-030-031-034>040-042>050-231200-
...SOUTHEAST SOUTH CAROLINA...

CITY           SKY/WX    TMP DP  RH WIND       PRES   REMARKS
N CHARLESTON   MOCLDY    71  71 100 SE8       30.08F
WATERFRONT PRK NOT AVBL
JOHNS ISLAND   PTSUNNY   73  72  94 SE8       30.08F
PINOPOLIS        N/A     72  72 100 VRB3      30.01
MONCKS CORNER  FAIR      70  68  94 CALM      30.08F
SUMMERVILLE    FAIR      70  70 100 CALM      30.09F
BEAUFORT MCAS  CLOUDY    74  74 100 SE7       30.06F
BEAUFORT ARPT  PTSUNNY   73  72  94 SE5       30.06S
HILTON HEAD IS MOCLDY    75  72  88 SE7       30.07S
WALTERBORO     CLOUDY    70  70 100 SE5       30.08S
ALLENDALE        N/A     72  70  94 SE6         N/A

...SOUTHERN MIDLANDS AND PEE DEE...

CITY           SKY/WX    TMP DP  RH WIND       PRES   REMARKS
GEORGETOWN     CLOUDY    72  70  94 SE5       30.12F
KINGSTREE      DRIZZLE   70  68  94 CALM      30.11S
ORANGEBURG     CLOUDY    70  69  97 SE6       30.07S
BARNWELL         N/A     72  72 100 SE9       30.05S
AIKEN          CLOUDY    68  68 100 SE9       30.07F
MANNING        CLOUDY    70  68  94 MISG      30.09F
COLUMBIA       CLOUDY    71  71 100 SE8       30.06F FOG
SUMTER         CLOUDY    72  70  94 SE9       30.06S
FLORENCE       LGT RAIN  68  68 100 SE8       30.11F
MYRTLE BEACH   MOCLDY    73  71  93 SE13      30.14F
N MYRTLE BEACH CLOUDY    72  71  97 SE10      30.14F

$$

GAZ063-065-086>088-099>101-113>116-118-119-134>141-150-231200-
...SOUTHEAST GEORGIA...

CITY           SKY/WX    TMP DP  RH WIND       PRES   REMARKS
SAVANNAH ARPT  CLOUDY    74  73  97 SE9       30.05S
HUNTER AAF     CLOUDY    76  72  89 SE8       30.02S
FORT STEWART   CLOUDY    72  71  96 SE6       30.02S
STATESBORO     CLOUDY    73  73 100 SE7       30.03S
SYLVANIA       CLOUDY    72  72 100 SE5       30.05S
CLAXTON        FAIR      73  73  97 CALM      30.03S FOG

...CSRA...CENTRAL AND FAR SOUTHEAST GEORGIA...

CITY           SKY/WX    TMP DP  RH WIND       PRES   REMARKS
THOMSON        CLOUDY    71  70  96 SW8       30.04F
AUGUSTA-BUSH   CLOUDY    73  70  90 SE9       30.01F
AUGUSTA-DANIEL CLOUDY    72  70  93 SE13      30.03F
SWAINSBORO     CLOUDY    73  73 100 SE13      30.02S
VIDALIA        CLOUDY    75  73  94 SE8       30.01F
EASTMAN        RAIN     N/A N/A N/A S9        30.00F
HAZLEHURST     FAIR      76  71  85 S7        29.99F
ALMA           MOCLDY    76  72  87 SE12      30.01S
WAYCROSS       CLOUDY    75  72  90 S7        30.02S
JESUP          NOT AVBL
BAXLEY         CLOUDY    73  73 100 S10       30.01S
BRUNSWICK      CLOUDY    77  72  83 S10       30.05S
SAINT SIMONS   CLOUDY    78  75  90 SE10      30.04S

$$

SCZ027-028-034-036>038-045-046-048>050-GAZ119-141-231200-
...LAKE AND SUPPLEMENTAL COASTAL OBSERVATIONS...

STATION/POSITION TIME  TEMP    WIND        PRES    WAVE   SWELL
                       AIR SEA DIR/SP/G            HT/PER HT/PER/DIR
                 (UTC) (F)     (DEG/KT/KT) (MB)    (FT/S) (FT/S/D)
WINYAH BAY       1045   74     150/  5     1020.0S
LAKE MURRAY      1020   70     120/  7/ 13 1016.9F
ACE BASIN NERRS  1045   73     110/  4     1018.0F
FORT PULASKI     1100   76 74  140/  7/ 10 1018.2
SAPELO ISLAND    NOT AVBL

$$

ANZ835-935-AMZ111-154-330-350-352-354-370-450-454-472-231200-
...C-MAN AND BUOY OBSERVATIONS...

STATION/POSITION TIME  TEMP    WIND        PRES    WAVE   SWELL
                       AIR SEA DIR/SP/G            HT/PER HT/PER/DIR
                 (UTC) (F)     (DEG/KT/KT) (MB)    (FT/S) (FT/S/D)
BUOY 41004       1110   79 79  140/ 21/ 27 1018.9
BUOY 41008       1050   79 77  140/ 16/ 17 1017.2R   5/ 7
FOLLY BEACH CMAN 1100   75     140/ 12/ 13 1019.3F
CAPERS NEARSHORE 1108   74 73  160/ 14/ 19 1018.6F
FRIPP NEARSHORE  1108   76     140/ 14/ 19   N/A


STATION/POSITION TIME  TEMP    WIND        PRES    WAVE   SWELL
                       AIR SEA DIR/SP/G            HT/PER HT/PER/DIR
                 (UTC) (F)     (DEG/KT/KT) (MB)    (FT/S) (FT/S/D)
5E ST. MARYS GA  1100      76                N/A     4/ 6
FRYING PAN BUOY  1110   77 77  130/ 16/ 19 1020.7
BUOY 41025       1050   77 81  130/ 12/ 16 1023.1F   3/ 9   2/ 80/ 9
CAPE LOOKOUT NC  1100   74     140/  9/  9 1022.5F
BUOY 41002       1050   77 80  110/ 14/ 16 1022.3F   4/ 8   3/ 90/ 8
BUOY 41010       NOT AVBL
ST AUGUSTINE FL  1100   78 78  180/ 11/ 12 1017.7R


$$



USA.gov is the U.S. government's official web portal to all federal, state and local government web resources and services.